• In Uzbekistan
  • List of Countries
  • For 7 days
  • Water Temperature
  • Weather Map
  • Weather Widgets
  • user-avatar
    Login

    Hourly Weather Lanzhou

    Today, 18 August, Sunday

    Time Temperature Precipitation Wind Pressure Humidity
    00:00 +25°C° 0 mm 2 mps 619 mmHg 62%
    01:00 +24°C° 0 mm 2 mps 618 mmHg 66%
    02:00 +24°C° 0 mm 2 mps 618 mmHg 68%
    03:00 +23°C° 0 mm 2 mps 618 mmHg 71%
    04:00 +23°C° 0 mm 1 mps 617 mmHg 73%
    05:00 +23°C° 0 mm 2 mps 618 mmHg 72%
    06:00 +23°C° 0 mm 2 mps 618 mmHg 72%
    07:00 +24°C° 0 mm 2 mps 618 mmHg 70%
    08:00 +25°C° 0 mm 2 mps 619 mmHg 63%
    09:00 +27°C° 0 mm 2 mps 619 mmHg 57%
    10:00 +28°C° 0 mm 2 mps 620 mmHg 51%
    11:00 +30°C° 0 mm 2 mps 619 mmHg 47%
    12:00 +31°C° 0 mm 3 mps 619 mmHg 44%
    13:00 +33°C° 0 mm 3 mps 619 mmHg 38%
    14:00 +34°C° 0 mm 4 mps 619 mmHg 38%
    15:00 +34°C° 0 mm 5 mps 618 mmHg 38%
    16:00 +34°C° 0 mm 5 mps 618 mmHg 38%
    17:00 +33°C° 0 mm 5 mps 618 mmHg 43%
    18:00 +30°C° 0 mm 5 mps 618 mmHg 47%
    19:00 +29°C° 0 mm 5 mps 617 mmHg 52%
    20:00 +28°C° 0 mm 5 mps 618 mmHg 55%
    21:00 +27°C° 0 mm 4 mps 618 mmHg 58%
    22:00 +26°C° 0 mm 4 mps 619 mmHg 61%
    23:00 +26°C° 0 mm 3 mps 618 mmHg 63%

    Tomorrow, 19 August, Monday

    Time Temperature Precipitation Wind Pressure Humidity
    00:00 +25°C° 0 mm 3 mps 618 mmHg 65%
    01:00 +24°C° 0 mm 2 mps 617 mmHg 68%
    02:00 +24°C° 0 mm 2 mps 617 mmHg 69%
    03:00 +23°C° 0 mm 1 mps 617 mmHg 71%
    04:00 +23°C° 0 mm 1 mps 617 mmHg 73%
    05:00 +23°C° 0 mm 1 mps 617 mmHg 72%
    06:00 +23°C° 0 mm 1 mps 617 mmHg 72%
    07:00 +24°C° 0 mm 1 mps 618 mmHg 71%
    08:00 +25°C° 0 mm 1 mps 618 mmHg 65%
    09:00 +27°C° 0 mm 1 mps 619 mmHg 60%
    10:00 +28°C° 0 mm 1 mps 619 mmHg 54%
    11:00 +30°C° 0.1 mm 2 mps 620 mmHg 48%
    12:00 +33°C° 0.1 mm 4 mps 620 mmHg 42%
    13:00 +34°C° 0.1 mm 5 mps 620 mmHg 36%
    14:00 +33°C° 0 mm 7 mps 620 mmHg 35%
    15:00 +32°C° 0 mm 8 mps 620 mmHg 34%
    16:00 +31°C° 0 mm 10 mps 620 mmHg 33%
    17:00 +29°C° 0 mm 9 mps 621 mmHg 37%
    18:00 +27°C° 0 mm 8 mps 621 mmHg 41%
    19:00 +24°C° 0 mm 7 mps 621 mmHg 46%
    20:00 +23°C° 0 mm 6 mps 622 mmHg 48%
    21:00 +23°C° 0 mm 6 mps 622 mmHg 50%
    22:00 +22°C° 0 mm 5 mps 623 mmHg 53%
    23:00 +21°C° 0 mm 5 mps 623 mmHg 54%

    Day after tomorrow, 20 August, Tuesday

    Time Temperature Precipitation Wind Pressure Humidity
    00:00 +21°C° 0 mm 4 mps 623 mmHg 56%
    01:00 +20°C° 0 mm 4 mps 623 mmHg 58%
    02:00 +20°C° 0 mm 3 mps 622 mmHg 60%
    03:00 +19°C° 0 mm 3 mps 622 mmHg 62%
    04:00 +19°C° 0 mm 2 mps 622 mmHg 64%
    05:00 +19°C° 0 mm 2 mps 623 mmHg 64%
    06:00 +19°C° 0 mm 3 mps 623 mmHg 64%
    07:00 +19°C° 0 mm 3 mps 623 mmHg 64%
    08:00 +19°C° 0 mm 3 mps 623 mmHg 62%
    09:00 +19°C° 0 mm 3 mps 624 mmHg 60%
    10:00 +20°C° 0 mm 3 mps 624 mmHg 58%
    11:00 +20°C° 0 mm 3 mps 624 mmHg 55%
    12:00 +20°C° 0 mm 3 mps 624 mmHg 53%
    13:00 +20°C° 0 mm 3 mps 624 mmHg 51%
    14:00 +21°C° 0 mm 3 mps 624 mmHg 50%
    15:00 +21°C° 0 mm 4 mps 624 mmHg 49%
    16:00 +21°C° 0 mm 4 mps 624 mmHg 48%
    17:00 +20°C° 0 mm 4 mps 624 mmHg 49%
    18:00 +19°C° 0 mm 4 mps 624 mmHg 51%
    19:00 +18°C° 0 mm 4 mps 624 mmHg 53%
    20:00 +18°C° 0 mm 4 mps 625 mmHg 54%
    21:00 +18°C° 0 mm 3 mps 625 mmHg 55%
    22:00 +18°C° 0 mm 3 mps 625 mmHg 56%
    23:00 +17°C° 0 mm 2 mps 625 mmHg 57%

    21 August, Wednesday

    Time Temperature Precipitation Wind Pressure Humidity
    00:00 +17°C° 0 mm 2 mps 624 mmHg 58%
    01:00 +18°C° 0 mm 1 mps 624 mmHg 59%
    02:00 +18°C° 0 mm 1 mps 623 mmHg 60%
    03:00 +18°C° 0 mm 1 mps 623 mmHg 60%
    04:00 +18°C° 0 mm 1 mps 623 mmHg 61%
    05:00 +16°C° 0.1 mm 1 mps 623 mmHg 63%
    06:00 +16°C° 0.1 mm 1 mps 623 mmHg 65%
    07:00 +16°C° 0.1 mm 1 mps 623 mmHg 67%
    08:00 +15°C° 0.3 mm 0 mps 623 mmHg 70%
    09:00 +15°C° 0.3 mm 0 mps 623 mmHg 73%
    10:00 +14°C° 0.3 mm 0 mps 623 mmHg 76%
    11:00 +14°C° 0.5 mm 0 mps 623 mmHg 78%
    12:00 +14°C° 0.5 mm 0 mps 623 mmHg 80%
    13:00 +14°C° 0.5 mm 0 mps 622 mmHg 82%
    14:00 +14°C° 0.9 mm 0 mps 622 mmHg 83%
    15:00 +14°C° 0.9 mm 0 mps 622 mmHg 85%
    16:00 +14°C° 0.9 mm 0 mps 622 mmHg 86%
    17:00 +14°C° 0.3 mm 0 mps 622 mmHg 86%
    18:00 +14°C° 0.3 mm 0 mps 622 mmHg 85%
    19:00 +14°C° 0.3 mm 0 mps 622 mmHg 85%
    20:00 +14°C° 0.1 mm 0 mps 622 mmHg 85%
    21:00 +14°C° 0.1 mm 0 mps 622 mmHg 85%
    22:00 +14°C° 0.1 mm 0 mps 622 mmHg 85%
    23:00 +14°C° 0 mm 0 mps 622 mmHg 84%

    22 August, Thursday

    Time Temperature Precipitation Wind Pressure Humidity
    00:00 +14°C° 0 mm 0 mps 621 mmHg 84%
    01:00 +15°C° 0 mm 0 mps 621 mmHg 83%
    02:00 +15°C° 0 mm 0 mps 621 mmHg 84%
    03:00 +14°C° 0 mm 0 mps 621 mmHg 84%
    04:00 +14°C° 0 mm 0 mps 620 mmHg 84%
    05:00 +15°C° 0 mm 0 mps 621 mmHg 83%
    06:00 +15°C° 0 mm 0 mps 621 mmHg 82%
    07:00 +15°C° 0 mm 0 mps 621 mmHg 81%
    08:00 +16°C° 0 mm 0 mps 621 mmHg 76%
    09:00 +17°C° 0 mm 0 mps 621 mmHg 71%
    10:00 +20°C° 0 mm 1 mps 621 mmHg 67%
    11:00 +22°C° 0 mm 1 mps 621 mmHg 62%
    12:00 +23°C° 0 mm 1 mps 621 mmHg 58%
    13:00 +25°C° 0 mm 2 mps 621 mmHg 54%
    14:00 +25°C° 0 mm 2 mps 621 mmHg 52%
    15:00 +26°C° 0 mm 3 mps 621 mmHg 51%
    16:00 +27°C° 0 mm 3 mps 621 mmHg 49%
    17:00 +26°C° 0 mm 3 mps 621 mmHg 51%
    18:00 +26°C° 0 mm 3 mps 621 mmHg 52%
    19:00 +25°C° 0 mm 3 mps 621 mmHg 54%
    20:00 +25°C° 0 mm 3 mps 621 mmHg 56%
    21:00 +24°C° 0 mm 3 mps 622 mmHg 57%
    22:00 +24°C° 0 mm 3 mps 622 mmHg 59%
    23:00 +24°C° 0 mm 3 mps 622 mmHg 60%

    23 August, Friday

    Time Temperature Precipitation Wind Pressure Humidity
    00:00 +22°C° 0 mm 3 mps 621 mmHg 61%
    01:00 +21°C° 0 mm 4 mps 621 mmHg 62%
    02:00 +21°C° 0 mm 3 mps 621 mmHg 63%
    03:00 +20°C° 0 mm 3 mps 621 mmHg 65%
    04:00 +20°C° 0 mm 2 mps 621 mmHg 67%
    05:00 +20°C° 0 mm 2 mps 621 mmHg 68%
    06:00 +19°C° 0 mm 2 mps 621 mmHg 70%
    07:00 +19°C° 0 mm 2 mps 621 mmHg 71%
    08:00 +19°C° 0.5 mm 2 mps 621 mmHg 74%
    09:00 +18°C° 0.5 mm 3 mps 621 mmHg 77%
    10:00 +18°C° 0.5 mm 3 mps 621 mmHg 80%
    11:00 +18°C° 0.6 mm 2 mps 621 mmHg 82%
    12:00 +17°C° 0.6 mm 2 mps 621 mmHg 83%
    13:00 +17°C° 0.6 mm 2 mps 621 mmHg 85%
    14:00 +18°C° 0.1 mm 1 mps 621 mmHg 84%
    15:00 +18°C° 0.1 mm 1 mps 621 mmHg 83%
    16:00 +19°C° 0.1 mm 1 mps 621 mmHg 82%
    17:00 +19°C° 0.1 mm 1 mps 621 mmHg 82%
    18:00 +17°C° 0.1 mm 0 mps 621 mmHg 83%
    19:00 +17°C° 0.1 mm 0 mps 622 mmHg 83%
    20:00 +17°C° 0 mm 0 mps 622 mmHg 83%
    21:00 +17°C° 0 mm 0 mps 622 mmHg 82%
    22:00 +17°C° 0 mm 0 mps 622 mmHg 82%
    23:00 +17°C° 0 mm 0 mps 622 mmHg 83%
    Show more